Weather History for Ovar Mil, Portugal

Change the Weather History Date:

Saturday, December 8, 2012

  Actual Average (LPPR) Record (LPPR)
Temperature  
Mean Temperature 48 °F -  
Max Temperature 60 °F 57 °F 62 °F (2001)
Min Temperature 37 °F 44 °F 33 °F (1996)
Degree Days  
Heating Degree Days 16    
Moisture  
Dew Point 43 °F    
Average Humidity 87    
Maximum Humidity 100    
Minimum Humidity 63    
Precipitation  
Precipitation 0.00 in - - ()
Sea Level Pressure  
Sea Level Pressure 30.22 in    
Wind  
Wind Speed 2 mph ()    
Max Wind Speed 6 mph    
Max Gust Speed -    
Visibility 1.7 miles    
Events Fog    
Averages and records for this station are not official NWS values.
T = Trace of Precipitation, MM = Missing Value Source: Averaged Metar Reports

Daily Weather History Graph

Daily Weather History Graph

Search for Another Location

Airport:

Trip Planner

Search our weather history database for the weather conditions in past years. The results will help you decide how hot, cold, wet, or windy it might be!

Date:

Astronomy

Dec. 08, 2012 Rise Set
Actual Time 7:46 AM WET 5:06 PM WET
Civil Twilight 7:15 AM WET 5:37 PM WET
Nautical Twilight 6:41 AM WET 6:11 PM WET
Astronomical Twilight 6:08 AM WET 6:44 PM WET
Moon 1:54 AM WET (12/8) 1:30 PM WET (12/8)
Length of Visible Light 10h 21m
Length of Day
9h 19m
Waning Crescent, 30% of the Moon is Illuminated
Dec 8
Waning Crescent
Dec 13
New
Dec 20
First Quarter
Dec 28
Full
Jan 5
Last Quarter

Hourly Weather History & Observations

Time (WET) Temp. Windchill Dew Point Humidity Pressure Visibility Wind Dir Wind Speed Gust Speed Precip Events Conditions
12:00 AM 46.4 °F - 46.4 °F 100% 30.15 in 1.9 mi North 1.2 mph - N/A   Partly Cloudy
1:00 AM 44.6 °F - 44.6 °F 100% 30.15 in 1.2 mi Variable 1.2 mph - N/A   Partly Cloudy
2:00 AM 42.8 °F - 41.0 °F 93% 30.18 in 0.6 mi Variable 1.2 mph - N/A   Partly Cloudy
3:00 AM 41.0 °F - 41.0 °F 100% 30.18 in 0.6 mi North 1.2 mph - N/A   Scattered Clouds
4:00 AM 41.0 °F - 41.0 °F 100% 30.18 in 0.6 mi South 2.3 mph - N/A   Scattered Clouds
5:00 AM 41.0 °F - 39.2 °F 93% 30.15 in 0.6 mi Calm Calm - N/A   Scattered Clouds
6:00 AM 37.4 °F - 35.6 °F 93% 30.18 in 0.6 mi Variable 1.2 mph - N/A   Mostly Cloudy
7:00 AM 39.2 °F 37.0 °F 39.2 °F 100% 30.18 in 0.3 mi South 3.5 mph - N/A Fog Fog
8:00 AM 41.0 °F 39.0 °F 39.2 °F 93% 30.21 in 0.1 mi South 3.5 mph - N/A Fog Fog
9:00 AM 41.0 °F - 39.2 °F 93% 30.21 in 0.3 mi Variable 1.2 mph - N/A Fog Fog
10:00 AM 46.4 °F - 44.6 °F 93% 30.24 in 3.1 mi Variable 2.3 mph - N/A   Mist
11:00 AM 51.8 °F - 48.2 °F 88% 30.24 in 5.0 mi North 4.6 mph - N/A   Unknown
12:00 PM 55.4 °F - 46.4 °F 72% 30.24 in - WNW 4.6 mph - N/A   Clear
1:00 PM 59.0 °F - 48.2 °F 67% 30.24 in - West 3.5 mph - N/A   Clear
2:00 PM 60.8 °F - 48.2 °F 63% 30.24 in - West 4.6 mph - N/A   Clear
3:00 PM 59.0 °F - 46.4 °F 63% 30.24 in - NW 5.8 mph - N/A   Clear
4:00 PM 59.0 °F - 48.2 °F 67% 30.21 in - Variable 2.3 mph - N/A   Clear
5:00 PM 55.4 °F - 46.4 °F 72% 30.21 in - Variable 2.3 mph - N/A   Clear
6:00 PM 50.0 °F - 44.6 °F 82% 30.24 in - Variable 2.3 mph - N/A   Clear
7:00 PM 46.4 °F - 42.8 °F 87% 30.24 in - Variable 1.2 mph - N/A   Clear
8:00 PM 41.0 °F - 39.2 °F 93% 30.27 in - Variable 2.3 mph - N/A   Clear
9:00 PM 41.0 °F - 39.2 °F 93% 30.27 in - Variable 1.2 mph - N/A   Clear
10:00 PM 41.0 °F - 39.2 °F 93% 30.27 in 5.0 mi Calm Calm - N/A   Unknown
11:00 PM 39.2 °F - 39.2 °F 100% 30.27 in 3.7 mi Calm Calm - N/A   Unknown